Tracking 19246 objects as of 21-Sep-2018
HD Live streaming from Space Station
objects crossing your sky now

FENGYUN 1C DEB

Track FENGYUN 1C DEB now!
10-day predictions


NORAD ID: 31554
Int'l Code: 1999-025BYV
Perigee: 792.4 km
Apogee: 885.8 km
Inclination: 99.0 °
Period: 101.5 minutes
Semi major axis: 7210 km
RCS: 0.0159 m2 (small)
Launch date: May 10, 1999
Source: People's Republic of China (PRC)
Launch site: Taiyaun Space Center, China (TSC)

Note: This is SATELLITE DEBRIS
aabbcc
Your satellite tracking list
Your tracking list is empty




NASA's NSSDC Master Catalog

Two Line Element Set (TLE):
1 31554U 99025BYV 18263.35732931 +.00000449 +00000-0 +23621-3 0  9990
2 31554 098.9683 314.6827 0064771 094.0936 266.7645 14.18053162272356
Source of the keplerian elements: AFSPC